EN

Hourly Weather Dzhyakovo

Today, 29 October, Thursday

Time Temperature Precipitation Wind Pressure Humidity
00:00 +12°C° 0 mm 1 mps 755 mmHg 88%
01:00 +12°C° 0 mm 1 mps 755 mmHg 90%
02:00 +12°C° 0 mm 1 mps 755 mmHg 90%
03:00 +12°C° 0 mm 1 mps 755 mmHg 91%
04:00 +11°C° 0 mm 1 mps 755 mmHg 92%
05:00 +11°C° 0 mm 1 mps 755 mmHg 92%
06:00 +11°C° 0 mm 1 mps 755 mmHg 93%
07:00 +11°C° 0 mm 1 mps 755 mmHg 93%
08:00 +13°C° 0 mm 1 mps 755 mmHg 86%
09:00 +14°C° 0 mm 1 mps 755 mmHg 80%
10:00 +16°C° 0 mm 1 mps 755 mmHg 73%
11:00 +16°C° 0 mm 1 mps 755 mmHg 70%
12:00 +18°C° 0 mm 1 mps 755 mmHg 66%
13:00 +18°C° 0 mm 2 mps 754 mmHg 63%
14:00 +17°C° 0.2 mm 2 mps 755 mmHg 65%
15:00 +17°C° 0.2 mm 3 mps 755 mmHg 67%
16:00 +16°C° 0.2 mm 3 mps 755 mmHg 69%
17:00 +14°C° 0.8 mm 4 mps 756 mmHg 74%
18:00 +13°C° 0.8 mm 5 mps 756 mmHg 79%
19:00 +11°C° 0.8 mm 6 mps 757 mmHg 84%
20:00 +12°C° 0.5 mm 4 mps 757 mmHg 84%
21:00 +12°C° 0.5 mm 3 mps 758 mmHg 84%
22:00 +13°C° 0.5 mm 1 mps 759 mmHg 83%
23:00 +12°C° 0 mm 2 mps 759 mmHg 86%

Tomorrow, 30 October, Friday

Time Temperature Precipitation Wind Pressure Humidity
00:00 +10°C° 0 mm 3 mps 759 mmHg 89%
01:00 +10°C° 0 mm 3 mps 760 mmHg 91%
02:00 +10°C° 0 mm 3 mps 760 mmHg 89%
03:00 +9°C° 0 mm 3 mps 760 mmHg 88%
04:00 +9°C° 0 mm 3 mps 760 mmHg 86%
05:00 +9°C° 0 mm 2 mps 761 mmHg 85%
06:00 +9°C° 0 mm 2 mps 761 mmHg 84%
07:00 +9°C° 0 mm 2 mps 761 mmHg 83%
08:00 +10°C° 0 mm 2 mps 761 mmHg 75%
09:00 +13°C° 0 mm 2 mps 761 mmHg 67%
10:00 +13°C° 0 mm 3 mps 761 mmHg 59%
11:00 +14°C° 0 mm 3 mps 761 mmHg 57%
12:00 +14°C° 0 mm 3 mps 760 mmHg 56%
13:00 +16°C° 0 mm 3 mps 760 mmHg 55%
14:00 +16°C° 0 mm 2 mps 760 mmHg 58%
15:00 +15°C° 0 mm 2 mps 760 mmHg 62%
16:00 +15°C° 0 mm 2 mps 760 mmHg 65%
17:00 +15°C° 0 mm 1 mps 760 mmHg 67%
18:00 +14°C° 0 mm 1 mps 760 mmHg 68%
19:00 +14°C° 0 mm 1 mps 760 mmHg 70%
20:00 +14°C° 0 mm 1 mps 760 mmHg 71%
21:00 +14°C° 0 mm 1 mps 760 mmHg 73%
22:00 +14°C° 0 mm 1 mps 760 mmHg 74%
23:00 +14°C° 0 mm 1 mps 760 mmHg 75%

Day after tomorrow, 31 October, Saturday

Time Temperature Precipitation Wind Pressure Humidity
00:00 +14°C° 0 mm 1 mps 760 mmHg 75%
01:00 +13°C° 0 mm 1 mps 760 mmHg 76%
02:00 +13°C° 0 mm 2 mps 760 mmHg 74%
03:00 +13°C° 0 mm 2 mps 759 mmHg 73%
04:00 +13°C° 0 mm 2 mps 759 mmHg 72%
05:00 +13°C° 0 mm 2 mps 759 mmHg 71%
06:00 +13°C° 0 mm 2 mps 759 mmHg 70%
07:00 +13°C° 0 mm 2 mps 759 mmHg 69%
08:00 +13°C° 0 mm 3 mps 759 mmHg 67%
09:00 +14°C° 0 mm 3 mps 759 mmHg 65%
10:00 +15°C° 0 mm 4 mps 759 mmHg 63%
11:00 +15°C° 0 mm 4 mps 758 mmHg 63%
12:00 +15°C° 0 mm 4 mps 758 mmHg 64%
13:00 +17°C° 0 mm 4 mps 758 mmHg 64%
14:00 +17°C° 0 mm 4 mps 758 mmHg 65%
15:00 +17°C° 0 mm 3 mps 757 mmHg 66%
16:00 +17°C° 0 mm 3 mps 757 mmHg 68%
17:00 +16°C° 0 mm 3 mps 757 mmHg 70%
18:00 +14°C° 0 mm 3 mps 758 mmHg 73%
19:00 +14°C° 0 mm 3 mps 758 mmHg 76%
20:00 +14°C° 0 mm 2 mps 758 mmHg 78%
21:00 +14°C° 0 mm 2 mps 758 mmHg 80%
22:00 +13°C° 0 mm 2 mps 758 mmHg 83%
23:00 +13°C° 0 mm 2 mps 758 mmHg 83%

1 November, Sunday

Time Temperature Precipitation Wind Pressure Humidity
00:00 +14°C° 0 mm 2 mps 758 mmHg 83%
01:00 +14°C° 0 mm 2 mps 758 mmHg 83%
02:00 +13°C° 0 mm 2 mps 758 mmHg 80%
03:00 +13°C° 0 mm 2 mps 758 mmHg 78%
04:00 +13°C° 0 mm 2 mps 759 mmHg 75%
05:00 +12°C° 0 mm 2 mps 759 mmHg 72%
06:00 +12°C° 0 mm 2 mps 759 mmHg 69%
07:00 +12°C° 0 mm 2 mps 759 mmHg 66%
08:00 +13°C° 0 mm 2 mps 759 mmHg 61%
09:00 +14°C° 0 mm 2 mps 759 mmHg 55%
10:00 +15°C° 0 mm 2 mps 760 mmHg 49%
11:00 +15°C° 0 mm 2 mps 759 mmHg 47%
12:00 +16°C° 0 mm 2 mps 759 mmHg 45%
13:00 +17°C° 0 mm 2 mps 759 mmHg 42%
14:00 +16°C° 0 mm 2 mps 759 mmHg 45%
15:00 +16°C° 0 mm 2 mps 759 mmHg 48%
16:00 +15°C° 0 mm 2 mps 758 mmHg 50%
17:00 +14°C° 0 mm 2 mps 759 mmHg 53%
18:00 +13°C° 0 mm 2 mps 759 mmHg 56%
19:00 +12°C° 0 mm 2 mps 759 mmHg 58%
20:00 +12°C° 0 mm 2 mps 759 mmHg 59%
21:00 +12°C° 0 mm 2 mps 759 mmHg 60%
22:00 +10°C° 0 mm 2 mps 759 mmHg 61%
23:00 +10°C° 0 mm 2 mps 759 mmHg 62%

2 November, Monday

Time Temperature Precipitation Wind Pressure Humidity
00:00 +9°C° 0 mm 2 mps 759 mmHg 63%
01:00 +9°C° 0 mm 2 mps 759 mmHg 64%
02:00 +9°C° 0 mm 2 mps 758 mmHg 65%
03:00 +9°C° 0 mm 2 mps 758 mmHg 66%
04:00 +8°C° 0 mm 2 mps 758 mmHg 67%
05:00 +8°C° 0 mm 2 mps 758 mmHg 69%
06:00 +9°C° 0 mm 1 mps 758 mmHg 70%
07:00 +9°C° 0 mm 1 mps 758 mmHg 71%
08:00 +11°C° 0 mm 1 mps 758 mmHg 68%
09:00 +13°C° 0 mm 1 mps 758 mmHg 64%
10:00 +14°C° 0 mm 2 mps 758 mmHg 61%
11:00 +15°C° 0 mm 1 mps 758 mmHg 59%
12:00 +18°C° 0 mm 1 mps 757 mmHg 57%
13:00 +19°C° 0 mm 1 mps 757 mmHg 55%
14:00 +18°C° 0 mm 1 mps 757 mmHg 58%
15:00 +18°C° 0 mm 1 mps 756 mmHg 61%
16:00 +15°C° 0 mm 0 mps 756 mmHg 64%
17:00 +14°C° 0 mm 0 mps 756 mmHg 67%
18:00 +15°C° 0 mm 1 mps 756 mmHg 69%
19:00 +14°C° 0 mm 1 mps 756 mmHg 71%
20:00 +14°C° 0 mm 1 mps 756 mmHg 72%
21:00 +14°C° 0 mm 1 mps 756 mmHg 73%
22:00 +14°C° 0 mm 1 mps 756 mmHg 74%
23:00 +13°C° 0 mm 0 mps 756 mmHg 75%

3 November, Tuesday

Time Temperature Precipitation Wind Pressure Humidity
00:00 +12°C° 0 mm 0 mps 756 mmHg 77%
01:00 +12°C° 0 mm 0 mps 756 mmHg 78%
02:00 +12°C° 0 mm 0 mps 756 mmHg 80%
03:00 +11°C° 0 mm 0 mps 755 mmHg 82%
04:00 +11°C° 0 mm 0 mps 755 mmHg 84%
05:00 +12°C° 0 mm 1 mps 756 mmHg 82%
06:00 +12°C° 0 mm 1 mps 756 mmHg 80%
07:00 +12°C° 0 mm 2 mps 756 mmHg 78%
08:00 +12°C° 0.2 mm 2 mps 756 mmHg 78%
09:00 +12°C° 0.2 mm 2 mps 756 mmHg 79%
10:00 +12°C° 0.2 mm 2 mps 756 mmHg 80%
11:00 +12°C° 0.1 mm 2 mps 756 mmHg 80%
12:00 +12°C° 0.1 mm 2 mps 756 mmHg 81%
13:00 +12°C° 0.1 mm 1 mps 756 mmHg 82%
14:00 +12°C° 0 mm 1 mps 756 mmHg 82%
15:00 +12°C° 0 mm 1 mps 756 mmHg 83%
16:00 +12°C° 0 mm 1 mps 756 mmHg 84%
17:00 +12°C° 0 mm 1 mps 756 mmHg 85%
18:00 +12°C° 0 mm 1 mps 757 mmHg 86%
19:00 +12°C° 0 mm 1 mps 757 mmHg 87%
20:00 +11°C° 0 mm 1 mps 757 mmHg 88%
21:00 +11°C° 0 mm 1 mps 757 mmHg 89%
22:00 +11°C° 0 mm 1 mps 757 mmHg 90%
23:00 +11°C° 0 mm 1 mps 757 mmHg 90%
Show more